Winona, MN

11:34 AM CST on February 24, 2017 (GMT -0600)
Winona Municipal-Conrad

Weather History for KONA - March, 2013

Change the Weather History Date:

Sunday, March 17, 2013

  Actual Average Record
Temperature  
Mean Temperature 22 °F -  
Max Temperature 30 °F 43 °F 78 °F (2012)
Min Temperature 14 °F 16 °F -9 °F (1993)
Degree Days  
Heating Degree Days 43    
Moisture  
Dew Point 10 °F    
Average Humidity 59    
Maximum Humidity 69    
Minimum Humidity 47    
Precipitation  
Precipitation 0.00 in - - ()
Sea Level Pressure  
Sea Level Pressure 30.15 in    
Wind  
Wind Speed 8 mph (East)    
Max Wind Speed 16 mph    
Max Gust Speed 20 mph    
Visibility 10 miles    
Events      
Averages and records for this station are not official NWS values.
T = Trace of Precipitation, MM = Missing Value Source: NWS Daily Summary

Daily Weather History Graph

Daily Weather History Graph

Search for Another Location

Airport or City:

Trip Planner

Search our weather history database for the weather conditions in past years. The results will help you decide how hot, cold, wet, or windy it might be!

Date:

Astronomy

Mar. 17, 2013 Rise Set
Actual Time 7:14 AM CDT 7:15 PM CDT
Civil Twilight 6:46 AM CDT 7:44 PM CDT
Nautical Twilight 6:12 AM CDT 8:18 PM CDT
Astronomical Twilight 5:38 AM CDT 8:52 PM CDT
Moon 10:16 AM CDT (3/17) 12:35 AM CDT (3/17)
Length of Visible Light 12h 58m
Length of Day
12h 00m
Waxing Crescent, 31% of the Moon is Illuminated
Mar 17
Waxing Crescent
Mar 19
First Quarter
Mar 27
Full
Apr 2
Last Quarter
Apr 10
New

Hourly Weather History & Observations

Time (CDT) Temp. Windchill Dew Point Humidity Pressure Visibility Wind Dir Wind Speed Gust Speed Precip Events Conditions
12:16 AM 19.4 °F 7.2 °F 8.6 °F 63% 30.22 in 10.0 mi NW 11.5 mph - N/A   Clear
12:36 AM 19.4 °F 7.9 °F 6.8 °F 58% 30.22 in 10.0 mi NW 10.4 mph - N/A   Clear
12:56 AM 19.4 °F 10.4 °F 8.6 °F 63% 30.22 in 10.0 mi NW 6.9 mph - N/A   Clear
1:16 AM 19.4 °F - 8.6 °F 63% 30.23 in 10.0 mi Calm Calm - N/A   Clear
1:36 AM 19.4 °F 14.3 °F 8.6 °F 63% 30.23 in 10.0 mi NNW 3.5 mph - N/A   Clear
1:56 AM 17.6 °F 10.7 °F 6.8 °F 63% 30.24 in 10.0 mi NNW 4.6 mph - N/A   Clear
2:16 AM 17.6 °F 9.3 °F 6.8 °F 63% 30.24 in 10.0 mi NNW 5.8 mph - N/A   Clear
2:36 AM 15.8 °F 10.2 °F 6.8 °F 68% 30.24 in 10.0 mi North 3.5 mph - N/A   Clear
2:56 AM 15.8 °F 6.1 °F 6.8 °F 68% 30.24 in 10.0 mi NNW 6.9 mph - N/A   Clear
3:16 AM 15.8 °F 10.2 °F 6.8 °F 68% 30.25 in 10.0 mi NW 3.5 mph - N/A   Clear
3:36 AM 14.0 °F 8.2 °F 5.0 °F 67% 30.25 in 10.0 mi NNW 3.5 mph - N/A   Clear
3:56 AM 15.8 °F 10.2 °F 5.0 °F 62% 30.24 in 10.0 mi North 3.5 mph - N/A   Clear
4:16 AM 15.8 °F - 5.0 °F 62% 30.24 in 10.0 mi Calm Calm - N/A   Clear
4:36 AM 15.8 °F 10.2 °F 5.0 °F 62% 30.23 in 10.0 mi NNE 3.5 mph - N/A   Clear
4:56 AM 15.8 °F 6.1 °F 3.2 °F 58% 30.22 in 10.0 mi NNE 6.9 mph - N/A   Clear
5:16 AM 14.0 °F 8.2 °F 3.2 °F 62% 30.23 in 10.0 mi ENE 3.5 mph - N/A   Clear
5:36 AM 14.0 °F 5.1 °F 1.4 °F 57% 30.23 in 10.0 mi ENE 5.8 mph - N/A   Clear
5:57 AM 14.0 °F 8.2 °F 3.2 °F 62% 30.24 in 10.0 mi NE 3.5 mph - N/A   Clear
6:16 AM 14.0 °F 6.5 °F 3.2 °F 62% 30.23 in 10.0 mi NE 4.6 mph - N/A   Clear
6:36 AM 14.0 °F 8.2 °F 3.2 °F 62% 30.24 in 10.0 mi ENE 3.5 mph - N/A   Clear
6:57 AM 14.0 °F 5.1 °F 3.2 °F 62% 30.24 in 10.0 mi ENE 5.8 mph - N/A   Clear
7:16 AM 14.0 °F 6.5 °F 3.2 °F 62% 30.24 in 10.0 mi ENE 4.6 mph - N/A   Clear
7:36 AM 14.0 °F 5.1 °F 3.2 °F 62% 30.25 in 10.0 mi East 5.8 mph - N/A   Clear
7:57 AM 14.0 °F 8.2 °F 3.2 °F 62% 30.25 in 10.0 mi East 3.5 mph - N/A   Clear
8:16 AM 14.0 °F 5.1 °F 3.2 °F 62% 30.26 in 10.0 mi ESE 5.8 mph - N/A   Clear
8:36 AM 14.0 °F 2.0 °F 3.2 °F 62% 30.26 in 10.0 mi SE 9.2 mph - N/A   Clear
8:57 AM 15.8 °F 3.4 °F 3.2 °F 58% 30.26 in 10.0 mi SE 10.4 mph - N/A   Clear
9:16 AM 15.8 °F 2.1 °F 3.2 °F 58% 30.26 in 10.0 mi ESE 12.7 mph 18.4 mph N/A   Clear
9:36 AM 15.8 °F 1.4 °F 3.2 °F 58% 30.25 in 10.0 mi ESE 13.8 mph - N/A   Clear
9:57 AM 17.6 °F 4.3 °F 3.2 °F 53% 30.24 in 10.0 mi ESE 12.7 mph 17.3 mph N/A   Clear
10:16 AM 19.4 °F 7.9 °F 5.0 °F 54% 30.25 in 10.0 mi ESE 10.4 mph - N/A   Clear
10:36 AM 19.4 °F 9.5 °F 5.0 °F 54% 30.25 in 10.0 mi ESE 8.1 mph - N/A   Clear
10:57 AM 19.4 °F 9.5 °F 6.8 °F 58% 30.24 in 10.0 mi ESE 8.1 mph - N/A   Clear
11:16 AM 21.2 °F 9.5 °F 8.6 °F 58% 30.24 in 10.0 mi ESE 11.5 mph - N/A   Clear
11:36 AM 21.2 °F 11.7 °F 8.6 °F 58% 30.23 in 10.0 mi SE 8.1 mph - N/A   Clear
11:57 AM 23.0 °F 11.7 °F 8.6 °F 54% 30.22 in 10.0 mi ESE 11.5 mph - N/A   Clear
12:16 PM 23.0 °F 13.1 °F 8.6 °F 54% 30.22 in 10.0 mi East 9.2 mph - N/A   Clear
12:36 PM 26.6 °F 17.5 °F 10.4 °F 51% 30.20 in 10.0 mi ESE 9.2 mph - N/A   Clear
12:57 PM 26.6 °F 16.8 °F 10.4 °F 51% 30.19 in 10.0 mi ESE 10.4 mph - N/A   Clear
1:16 PM 28.4 °F 18.5 °F 12.2 °F 51% 30.18 in 10.0 mi East 11.5 mph - N/A   Clear
1:36 PM 28.4 °F 20.4 °F 10.4 °F 47% 30.16 in 10.0 mi East 8.1 mph - N/A   Clear
1:56 PM 28.4 °F 21.2 °F 10.4 °F 47% 30.15 in 10.0 mi East 6.9 mph - N/A   Clear
2:16 PM 28.4 °F 19.1 °F 10.4 °F 47% 30.14 in 10.0 mi ESE 10.4 mph - N/A   Clear
2:36 PM 28.4 °F 18.5 °F 10.4 °F 47% 30.12 in 10.0 mi East 11.5 mph 16.1 mph N/A   Clear
2:56 PM 28.4 °F 19.1 °F 10.4 °F 47% 30.11 in 10.0 mi ESE 10.4 mph 17.3 mph N/A   Clear
3:16 PM 30.2 °F 21.3 °F 12.2 °F 47% 30.10 in 10.0 mi East 10.4 mph - N/A   Clear
3:36 PM 30.2 °F 20.8 °F 12.2 °F 47% 30.09 in 10.0 mi ESE 11.5 mph - N/A   Clear
3:56 PM 30.2 °F 20.2 °F 12.2 °F 47% 30.07 in 10.0 mi ESE 12.7 mph - N/A   Clear
4:16 PM 30.2 °F 20.8 °F 12.2 °F 47% 30.07 in 10.0 mi ESE 11.5 mph - N/A   Clear
4:36 PM 30.2 °F 19.8 °F 12.2 °F 47% 30.06 in 10.0 mi SE 13.8 mph 18.4 mph N/A   Clear
4:56 PM 30.2 °F 20.2 °F 14.0 °F 51% 30.05 in 10.0 mi ESE 12.7 mph - N/A   Clear
5:16 PM 30.2 °F 18.9 °F 12.2 °F 47% 30.04 in 10.0 mi ESE 16.1 mph - N/A   Clear
5:36 PM 30.2 °F 19.8 °F 14.0 °F 51% 30.04 in 10.0 mi ESE 13.8 mph 19.6 mph N/A   Clear
5:56 PM 30.2 °F 21.3 °F 14.0 °F 51% 30.03 in 10.0 mi ESE 10.4 mph - N/A   Clear
6:16 PM 30.2 °F 19.8 °F 14.0 °F 51% 30.02 in 10.0 mi ESE 13.8 mph - N/A   Clear
6:36 PM 30.2 °F 20.2 °F 14.0 °F 51% 30.01 in 10.0 mi ESE 12.7 mph - N/A   Clear
6:56 PM 28.4 °F 18.5 °F 14.0 °F 55% 30.00 in 10.0 mi ESE 11.5 mph - N/A   Clear
7:17 PM 28.4 °F 20.4 °F 14.0 °F 55% 30.00 in 10.0 mi ESE 8.1 mph - N/A   Clear
7:36 PM 28.4 °F 20.4 °F 15.8 °F 59% 30.01 in 10.0 mi ESE 8.1 mph - N/A   Clear
7:56 PM 28.4 °F 21.2 °F 17.6 °F 64% 30.01 in 10.0 mi SE 6.9 mph - N/A   Clear
8:17 PM 26.6 °F 19.1 °F 15.8 °F 64% 30.01 in 10.0 mi SE 6.9 mph - N/A   Clear
8:36 PM 28.4 °F 19.7 °F 17.6 °F 64% 30.00 in 10.0 mi SE 9.2 mph 17.3 mph N/A   Clear
8:56 PM 28.4 °F 20.4 °F 17.6 °F 64% 29.99 in 10.0 mi ESE 8.1 mph - N/A   Clear
9:17 PM 26.6 °F 17.5 °F 17.6 °F 69% 29.99 in 10.0 mi SE 9.2 mph - N/A   Clear
9:36 PM 26.6 °F 17.5 °F 17.6 °F 69% 29.98 in 10.0 mi SE 9.2 mph - N/A   Clear
9:56 PM 26.6 °F 19.1 °F 17.6 °F 69% 29.99 in 10.0 mi SE 6.9 mph - N/A   Clear
10:17 PM 26.6 °F 19.1 °F 17.6 °F 69% 29.98 in 10.0 mi SE 6.9 mph - N/A   Clear
10:36 PM 26.6 °F 17.5 °F 17.6 °F 69% 29.98 in 10.0 mi SE 9.2 mph - N/A   Clear
10:56 PM 26.6 °F 17.5 °F 17.6 °F 69% 29.97 in 10.0 mi SE 9.2 mph - N/A   Scattered Clouds
11:17 PM 26.6 °F 20.0 °F 17.6 °F 69% 29.96 in 10.0 mi SE 5.8 mph - N/A   Mostly Cloudy
11:36 PM 28.4 °F 19.7 °F 19.4 °F 69% 29.96 in 10.0 mi SE 9.2 mph - N/A   Overcast
11:56 PM 28.4 °F 19.1 °F 19.4 °F 69% 29.95 in 10.0 mi SE 10.4 mph - N/A   Overcast